Laoag, Philippines

4:22 AM PHT on February 09, 2016 (GMT +0800)
Laoag International

Weather History for RPLI - January, 2013

Change the Weather History Date:

Tuesday, January 1, 2013

  Actual Average Record
Temperature  
Mean Temperature 76 °F -  
Max Temperature 87 °F - - ()
Min Temperature 65 °F - - ()
Cooling Degree Days 11    
Growing Degree Days 26 (Base 50)    
Moisture  
Dew Point 70 °F    
Average Humidity 72    
Maximum Humidity 94    
Minimum Humidity 50    
Precipitation  
Precipitation 0.00 in - - ()
Sea Level Pressure  
Sea Level Pressure 29.86 in    
Wind  
Wind Speed 4 mph ()    
Max Wind Speed 12 mph    
Max Gust Speed -    
Visibility 5.7 miles    
Events      
T = Trace of Precipitation, MM = Missing Value Source: Averaged Metar Reports

Daily Weather History Graph

Daily Weather History Graph

Search for Another Location

Airport or City:

Trip Planner

Search our weather history database for the weather conditions in past years. The results will help you decide how hot, cold, wet, or windy it might be!

Date:

Astronomy

Jan. 01, 2013 Rise Set
Actual Time 6:29 AM PHT 5:33 PM PHT
Civil Twilight 6:05 AM PHT 5:56 PM PHT
Nautical Twilight 5:38 AM PHT 6:24 PM PHT
Astronomical Twilight 5:11 AM PHT 6:50 PM PHT
Moon 8:54 PM PHT (1/1) 8:54 AM PHT (1/1)
Length of Visible Light 11h 51m
Length of Day
11h 03m
Waning Gibbous, 87% of the Moon is Illuminated
Jan 1
Waning Gibbous
Jan 5
Last Quarter
Jan 12
New
Jan 19
First Quarter
Jan 27
Full

Hourly Weather History & Observations

Time (PHT) Temp. Heat Index Dew Point Humidity Pressure Visibility Wind Dir Wind Speed Gust Speed Precip Events Conditions
2:00 AM 70 °F - 67 °F 88% 29.85 in 6 mi Calm Calm - -   Haze
5:00 AM 66 °F - 65 °F 94% 29.84 in 5 mi Calm Calm - -   Haze
6:00 AM 66.2 °F - 64.4 °F 94% 29.86 in 1.9 mi North - - N/A   Partly Cloudy
7:00 AM 66.2 °F - 64.4 °F 94% 29.89 in 1.9 mi North - - N/A   Scattered Clouds
8:00 AM 72 °F - 66 °F 77% 29.92 in 5 mi ESE 2.2 mph - -   Haze
8:00 AM 71.6 °F - 66.2 °F 83% 29.92 in 1.9 mi North - - N/A   Partly Cloudy
9:00 AM 78.8 °F - 68.0 °F 69% 29.92 in 6.2 mi ENE 4.6 mph - N/A   Scattered Clouds
10:00 AM 78.8 °F - 68.0 °F 69% 29.92 in 6.2 mi ENE 4.6 mph - N/A   Scattered Clouds
11:00 AM 84 °F - 71 °F 56% 29.92 in 7 mi North 6.7 mph - -   Haze
11:00 AM 84.2 °F 88.4 °F 69.8 °F 62% 29.92 in 6.2 mi North 6.9 mph - N/A   Scattered Clouds
12:00 PM 86.0 °F 90.4 °F 69.8 °F 58% 29.89 in 6.2 mi NNW 9.2 mph - N/A   Scattered Clouds
1:00 PM 87.8 °F 92.6 °F 69.8 °F 55% 29.83 in 6.2 mi North 11.5 mph - N/A   Scattered Clouds
2:00 PM 86 °F - 70 °F 50% 29.82 in 7 mi North 11.2 mph - -   Haze
2:00 PM 86.0 °F 93.4 °F 73.4 °F 66% 29.80 in 6.2 mi North 11.5 mph - N/A   Scattered Clouds
3:00 PM 86.0 °F 90.4 °F 69.8 °F 58% 29.80 in 6.2 mi NNW 9.2 mph - N/A   Mostly Cloudy
4:00 PM 87.8 °F 92.6 °F 69.8 °F 55% 29.80 in 6.2 mi NNW 9.2 mph - N/A   Partly Cloudy
5:00 PM 85 °F - 75 °F 65% 29.82 in 7 mi NNW 4.5 mph - -   Haze
5:00 PM 84.2 °F 92.3 °F 75.2 °F 74% 29.80 in 6.2 mi NNW 4.6 mph - N/A   Partly Cloudy
6:00 PM 82.4 °F 89.5 °F 75.2 °F 79% 29.83 in 6.2 mi North 2.3 mph - N/A   Mostly Cloudy
8:00 PM 78 °F - 73 °F 80% 29.88 in 7 mi East 4.5 mph - -   Partly Cloudy
11:00 PM 73 °F - 70 °F 89% 29.91 in 7 mi East 2.2 mph - -   Scattered Clouds